1494180000.21,52036,16.75,72968.5,-1.63,-16.03,-12.15,0,*55
1494180001.44,52037,16.75,72970.8,-1.63,-14.93,-11.23,0,*59
1494180002.71,52038,16.75,72966.0,-1.63,-13.29,-10.41,0,*55
1494180003.94,52039,16.75,72958.0,-1.63,-11.89,-10.93,0,*53
1494180005.19,52040,16.75,72962.8,-1.63,-12.29,-11.93,0,*55
1494180006.42,52041,16.75,72964.0,-1.63,-13.07,-12.07,0,*57
1494180007.69,52042,16.75,72966.5,-1.63,-12.79,-11.93,0,*52
1494180008.92,52043,16.75,72962.0,-1.63,-12.93,-11.73,0,*59
1494180010.16,52044,16.75,72956.5,-1.61,-12.47,-11.11,0,*51
1494180011.4,52045,16.75,72964.5,-1.63,-12.61,-10.97,0,*59
1494180012.66,52046,16.75,72964.3,-1.63,-12.07,-10.67,0,*55
1494180013.91,52047,16.75,72960.3,-1.63,-11.33,-10.01,0,*50
1494180015.13,52048,16.75,72962.5,-1.63,-10.85,-9.57,0,*68
1494180016.39,52049,16.75,72962.8,-1.63,-10.41,-9.53,0,*65
1494180017.68,52050,16.75,72960.3,-1.61,-10.67,-9.57,0,*6F
1494180018.9,52051,16.75,72958.8,-1.63,-10.53,-9.41,0,*6C
1494180020.18,52052,16.75,72960.5,-1.61,-10.75,-9.57,0,*6E
1494180021.38,52053,16.75,72960.0,-1.63,-10.93,-9.97,0,*69
1494180022.62,52054,16.75,72958.0,-1.61,-11.23,-9.79,0,*66
1494180023.88,52055,16.75,72950.3,-1.61,-11.07,-9.67,0,*6E
1494180025.14,52056,16.75,72950.0,-1.61,-10.41,-9.97,0,*61
1494180026.4,52057,16.75,72958.0,-1.61,-10.53,-10.41,0,*50
1494180027.69,52058,16.75,72956.0,-1.61,-10.67,-10.79,0,*53
1494180028.93,52059,16.75,72960.0,-1.63,-10.97,-12.57,0,*51
1494180030.17,52060,16.75,72964.8,-1.61,-12.89,-13.73,0,*53
1494180031.43,52061,16.75,72962.0,-1.61,-14.05,-13.73,0,*50
1494180032.7,52062,16.75,72962.3,-1.61,-13.87,-12.29,0,*50
1494180033.93,52063,16.75,72962.8,-1.61,-13.15,-12.03,0,*52
1494180035.19,52064,16.75,72964.8,-1.59,-13.37,-12.15,0,*59
1494180036.42,52065,16.75,72964.8,-1.61,-13.47,-13.07,0,*56
1494180037.68,52066,16.75,72970.0,-1.61,-13.79,-13.47,0,*5C
1494180038.94,52067,16.75,72968.0,-1.59,-13.97,-13.01,0,*54
1494180040.2,52068,16.75,72974.3,-1.61,-14.29,-13.61,0,*54
1494180041.47,52069,16.75,72970.5,-1.61,-15.89,-15.63,0,*5A
1494180042.7,52070,16.75,72962.8,-1.61,-17.31,-16.41,0,*50
1494180043.98,52071,16.75,72970.8,-1.61,-18.89,-18.89,0,*57
1494180045.23,52072,16.75,72968.8,-1.61,-21.27,-19.03,0,*59
1494180046.48,52073,16.75,72962.5,-1.61,-20.63,-18.11,0,*5B
1494180047.74,52074,16.75,72956.5,-1.61,-20.63,-18.01,0,*5D
1494180048.97,52075,16.75,72960.5,-1.63,-20.49,-16.37,0,*5D
1494180050.18,52076,16.75,72960.5,-1.63,-21.09,-14.29,0,*56
1494180051.45,52077,16.75,72954.3,-1.63,-19.27,-11.63,0,*5B
1494180052.67,52078,16.75,72952.8,-1.63,-15.95,-10.27,0,*50
1494180053.9,52079,16.75,72946.8,-1.63,-13.55,-9.41,0,*63
1494180055.15,52080,16.75,72936.0,-1.65,-11.85,-9.05,0,*6C
1494180056.42,52081,16.75,72934.0,-1.63,-11.93,-9.53,0,*6F
1494180057.65,52082,16.75,72932.3,-1.63,-11.89,-9.01,0,*60
1494180058.92,52083,16.75,72932.8,-1.63,-10.41,-8.07,0,*63
1494180060.13,52084,16.75,72942.8,-1.63,-9.67,-8.03,0,*5C
1494180061.33,52085,16.75,72940.3,-1.63,-9.19,-8.59,0,*5B
1494180062.57,52086,16.75,72944.5,-1.63,-9.57,-9.45,0,*5E
1494180063.79,52087,16.75,72954.8,-1.63,-10.85,-10.01,0,*50
1494180065.02,52088,16.75,72952.3,-1.63,-12.75,-9.71,0,*6D
1494180066.25,52089,16.75,72956.5,-1.61,-12.93,-8.71,0,*67
1494180067.51,52090,16.75,72956.5,-1.61,-11.33,-8.37,0,*64
1494180068.74,52091,16.75,72954.3,-1.61,-10.01,-8.45,0,*60
1494180069.99,52092,16.75,72952.8,-1.63,-9.45,-7.95,0,*5B
1494180071.23,52093,16.75,72948.0,-1.61,-9.57,-8.37,0,*5C
1494180072.45,52094,16.75,72958.5,-1.63,-9.53,-8.75,0,*5B
1494180073.69,52095,16.75,72962.0,-1.61,-10.23,-10.01,0,*5D
1494180074.96,52096,16.75,72956.3,-1.61,-14.05,-14.29,0,*50
1494180076.24,52097,16.75,72956.8,-1.61,-17.59,-15.01,0,*50
1494180077.51,52098,16.75,72952.5,-1.61,-19.65,-15.53,0,*59
1494180078.77,52099,16.69,72962.5,-1.61,-20.19,-15.75,0,*5D
1494180080.01,52100,16.75,72966.8,-1.63,-20.15,-14.65,0,*52
1494180081.27,52101,16.75,72960.8,-1.61,-18.45,-14.05,0,*59
1494180082.49,52102,16.75,72970.0,-1.59,-17.35,-12.43,0,*5D
1494180083.71,52103,16.75,72972.8,-1.63,-16.23,-10.85,0,*5B
1494180084.98,52104,16.75,72964.5,-1.61,-15.53,-10.41,0,*52
1494180086.22,52105,16.75,72962.5,-1.63,-13.73,-9.45,0,*69
1494180087.42,52106,16.75,72956.0,-1.63,-12.29,-8.71,0,*62
1494180088.64,52107,16.75,72954.3,-1.63,-11.51,-8.63,0,*6C
1494180089.84,52108,16.75,72954.5,-1.63,-11.23,-8.63,0,*66
1494180091.04,52109,16.75,72954.5,-1.63,-11.11,-8.33,0,*63
1494180092.27,52110,16.75,72950.3,-1.63,-10.53,-7.39,0,*69
1494180093.48,52111,16.75,72946.8,-1.63,-9.57,-6.77,0,*5F
1494180094.73,52112,16.75,72950.8,-1.65,-8.41,-6.23,0,*5D
1494180095.98,52113,16.75,72946.5,-1.63,-7.43,-5.73,0,*51
1494180097.18,52114,16.75,72948.0,-1.63,-6.89,-5.55,0,*55
1494180098.39,52115,16.75,72948.5,-1.63,-6.35,-5.55,0,*53
1494180099.63,52116,16.75,72950.5,-1.63,-6.31,-5.85,0,*59
1494180100.83,52117,16.75,72948.3,-1.63,-6.85,-6.31,0,*5B
1494180102.06,52118,16.75,72962.3,-1.63,-8.21,-7.43,0,*50
1494180103.26,52119,16.75,72966.5,-1.63,-10.09,-8.89,0,*6B
1494180104.54,52120,16.75,72964.0,-1.61,-12.65,-9.45,0,*6A
1494180105.77,52121,16.75,72966.5,-1.63,-14.51,-9.67,0,*68
1494180107.02,52122,16.69,72964.8,-1.63,-15.21,-9.57,0,*6E
1494180108.23,52123,16.69,72964.8,-1.63,-14.89,-9.01,0,*6F
1494180109.48,52124,16.75,72966.0,-1.63,-14.43,-9.11,0,*6F
1494180110.75,52125,16.69,72964.0,-1.63,-14.47,-9.11,0,*6A
1494180111.96,52126,16.69,72960.3,-1.63,-14.33,-8.89,0,*6A
1494180113.19,52127,16.75,72960.5,-1.63,-14.05,-8.75,0,*6D
1494180114.39,52128,16.75,72948.3,-1.63,-13.43,-8.45,0,*64
1494180115.63,52129,16.69,72946.0,-1.63,-12.29,-7.91,0,*6E
1494180116.88,52130,16.75,72948.5,-1.63,-11.59,-7.65,0,*69
1494180118.13,52131,16.69,72948.5,-1.63,-10.97,-7.43,0,*6F
1494180119.38,52132,16.69,72954.3,-1.63,-11.37,-8.07,0,*68
1494180120.63,52133,16.69,72952.3,-1.61,-12.61,-8.75,0,*6E
1494180121.83,52134,16.69,72952.5,-1.63,-13.47,-8.97,0,*62
1494180123.06,52135,16.69,72948.3,-1.61,-13.47,-8.71,0,*69
1494180124.26,52136,16.69,72944.8,-1.63,-12.29,-8.33,0,*67
1494180125.49,52137,16.69,72946.0,-1.61,-12.29,-8.33,0,*64
1494180126.7,52138,16.69,72940.5,-1.63,-12.21,-8.85,0,*6C
1494180127.93,52139,16.69,72932.3,-1.63,-12.65,-8.45,0,*61
1494180129.17,52140,16.69,72926.5,-1.61,-12.21,-8.17,0,*6A
1494180130.42,52141,16.69,72928.0,-1.63,-11.81,-8.07,0,*61
1494180131.68,52142,16.69,72928.5,-1.63,-11.73,-8.07,0,*6F
1494180132.94,52143,16.69,72936.8,-1.63,-11.89,-8.51,0,*68
1494180134.16,52144,16.69,72946.3,-1.61,-12.43,-8.59,0,*60
1494180135.38,52145,16.69,72946.8,-1.63,-12.65,-8.59,0,*67
1494180136.63,52146,16.69,72954.5,-1.61,-12.79,-8.63,0,*62
1494180137.87,52147,16.69,72954.0,-1.61,-13.55,-8.89,0,*68
1494180139.13,52148,16.69,72948.3,-1.61,-14.43,-9.01,0,*66
1494180140.36,52149,16.69,72944.5,-1.61,-14.89,-9.19,0,*68
1494180141.61,52150,16.69,72940.5,-1.61,-14.01,-8.63,0,*6C
1494180142.84,52151,16.69,72942.8,-1.61,-13.65,-8.63,0,*68
1494180144.09,52152,16.69,72946.5,-1.61,-12.93,-8.03,0,*65
1494180145.32,52153,16.69,72950.5,-1.63,-12.89,-8.03,0,*6D
1494180146.57,52154,16.69,72952.5,-1.61,-13.43,-8.03,0,*6F
1494180147.78,52155,16.69,72954.5,-1.63,-14.15,-8.17,0,*6D
1494180148.98,52156,16.69,72948.5,-1.63,-14.65,-8.33,0,*6F
1494180150.22,52157,16.69,72950.0,-1.61,-14.75,-8.33,0,*6D
1494180151.45,52158,16.69,72952.8,-1.61,-14.65,-8.17,0,*65
1494180152.71,52159,16.69,72952.3,-1.63,-14.47,-7.91,0,*67
1494180153.95,52160,16.69,72954.5,-1.63,-14.15,-7.77,0,*62
1494180155.21,52161,16.69,72958.5,-1.61,-14.33,-7.77,0,*65
1494180156.45,52162,16.69,72954.3,-1.63,-14.19,-7.65,0,*6F
1494180157.68,52163,16.69,72952.8,-1.63,-14.19,-7.69,0,*62
1494180158.94,52164,16.69,72954.8,-1.63,-13.61,-7.39,0,*68
1494180160.17,52165,16.69,72954.8,-1.63,-13.65,-7.39,0,*6D
1494180161.4,52166,16.69,72952.0,-1.63,-13.47,-7.27,0,*61
1494180162.65,52167,16.69,72960.3,-1.63,-13.33,-7.01,0,*67
1494180163.9,52168,16.69,72958.8,-1.63,-13.01,-6.97,0,*67
1494180165.14,52169,16.69,72956.8,-1.63,-12.75,-6.85,0,*67
1494180166.37,52170,16.69,72956.8,-1.63,-12.57,-6.77,0,*62
1494180167.6,52171,16.69,72960.3,-1.63,-12.47,-6.63,0,*67
1494180168.81,52172,16.69,72966.0,-1.63,-12.29,-6.59,0,*65
1494180170.07,52173,16.69,72960.5,-1.61,-12.15,-6.51,0,*61
1494180171.27,52174,16.69,72960.3,-1.63,-12.03,-6.47,0,*64
1494180172.53,52175,16.69,72960.8,-1.61,-11.81,-6.43,0,*6A
1494180173.79,52176,16.69,72964.0,-1.61,-11.77,-6.31,0,*65
1494180175.02,52177,16.69,72960.5,-1.59,-11.45,-6.27,0,*69
1494180176.28,52178,16.69,72960.3,-1.61,-11.19,-6.19,0,*69
1494180177.54,52179,16.69,72960.8,-1.61,-10.97,-6.19,0,*6F
1494180178.78,52180,16.69,72956.8,-1.61,-10.97,-6.09,0,*68
1494180180.06,52181,16.69,72960.5,-1.61,-10.75,-5.93,0,*65
1494180181.31,52182,16.69,72956.0,-1.61,-10.23,-5.73,0,*6B
1494180182.57,52183,16.69,72958.0,-1.61,-10.15,-5.73,0,*6F
1494180183.81,52184,16.63,72956.3,-1.61,-9.93,-5.69,0,*55
1494180185.06,52185,16.69,72960.5,-1.61,-9.83,-5.55,0,*5A
1494180186.31,52186,16.69,72960.8,-1.61,-9.53,-5.51,0,*50
1494180187.57,52187,16.69,72958.8,-1.61,-9.53,-5.55,0,*55
1494180188.77,52188,16.69,72960.3,-1.63,-9.79,-5.55,0,*50
1494180190.0,52189,16.69,72964.5,-1.59,-9.61,-5.39,0,*5B
1494180191.22,52190,16.69,72960.3,-1.61,-9.93,-5.51,0,*5B
1494180192.45,52191,16.63,72956.0,-1.61,-10.01,-5.43,0,*6A
1494180193.67,52192,16.69,72958.8,-1.59,-9.49,-5.35,0,*57
1494180194.88,52193,16.69,72956.5,-1.59,-9.79,-5.35,0,*55
1494180196.08,52194,16.69,72960.8,-1.59,-9.75,-5.35,0,*5E
1494180197.28,52195,16.69,72956.0,-1.59,-9.75,-5.35,0,*5F
1494180198.53,52196,16.69,72956.3,-1.55,-9.61,-5.27,0,*56
1494180199.73,52197,16.69,72956.0,-1.59,-9.75,-5.35,0,*5D
1494180200.99,52198,16.69,72956.8,-1.59,-9.53,-5.27,0,*55
1494180202.24,52199,16.69,72960.0,-1.59,-9.53,-5.27,0,*54
1494180203.49,52200,16.69,72956.5,-1.55,-9.53,-5.23,0,*5F
1494180204.76,52201,16.63,72954.3,-1.59,-9.41,-5.23,0,*51
1494180206.02,52202,16.69,72956.5,-1.59,-9.37,-5.11,0,*52
1494180207.28,52203,16.63,72956.3,-1.59,-9.37,-5.03,0,*50
1494180208.53,52204,16.69,72956.8,-1.55,-9.41,-5.11,0,*59
1494180209.77,52205,16.63,72956.0,-1.55,-9.27,-5.03,0,*5B
1494180211.0,52206,16.63,72956.3,-1.55,-9.15,-4.99,0,*5B
1494180212.2,52207,16.69,72956.5,-1.55,-9.23,-4.99,0,*5F
1494180213.43,52208,16.69,72952.3,-1.59,-9.23,-5.03,0,*5E
1494180214.63,52209,16.63,72954.0,-1.59,-9.23,-4.99,0,*5D
1494180215.84,52210,16.63,72950.5,-1.55,-9.05,-4.99,0,*5D
1494180217.06,52211,16.63,72952.8,-1.55,-8.97,-4.89,0,*57
1494180218.3,52212,16.63,72954.8,-1.55,-8.85,-4.85,0,*5B
1494180219.53,52213,16.63,72954.0,-1.55,-8.85,-4.89,0,*56
1494180220.78,52214,16.63,72956.0,-1.55,-8.81,-4.89,0,*55
1494180222.02,52215,16.63,72950.5,-1.55,-8.71,-4.85,0,*57
1494180223.22,52216,16.69,72954.3,-1.55,-8.41,-4.61,0,*5D
1494180224.48,52217,16.63,72946.5,-1.59,-8.11,-4.69,0,*5D
1494180225.7,52218,16.63,72956.3,-1.55,-7.77,-4.61,0,*59
1494180226.93,52219,16.63,72956.8,-1.55,-7.65,-4.57,0,*5E
1494180228.18,52220,16.63,72954.3,-1.53,-7.43,-4.53,0,*52
1494180229.43,52221,16.63,72946.8,-1.55,-7.91,-4.89,0,*5D
1494180230.68,52222,16.63,72950.8,-1.55,-7.91,-4.89,0,*5E
1494180231.93,52223,16.63,72950.3,-1.55,-7.77,-4.73,0,*52
1494180233.16,52224,16.63,72948.8,-1.55,-8.21,-4.85,0,*50
1494180234.39,52225,16.63,72958.0,-1.59,-8.29,-4.89,0,*59
1494180235.66,52226,16.63,72954.5,-1.53,-8.11,-4.81,0,*53
1494180236.94,52227,16.63,72954.5,-1.53,-7.95,-4.81,0,*51
1494180238.16,52228,16.63,72960.0,-1.55,-7.87,-4.73,0,*56
1494180239.41,52229,16.63,72956.8,-1.55,-7.39,-4.69,0,*59
1494180240.66,52230,16.63,72962.0,-1.53,-7.27,-4.57,0,*55
1494180241.86,52231,16.63,72956.5,-1.51,-6.89,-4.65,0,*52
1494180243.11,52232,16.63,72958.5,-1.53,-7.15,-4.69,0,*5B
1494180244.38,52233,16.63,72952.3,-1.53,-7.43,-4.69,0,*59
1494180245.63,52234,16.63,72948.5,-1.51,-7.27,-4.69,0,*5E
1494180246.88,52235,16.63,72950.8,-1.53,-7.19,-4.81,0,*56
1494180248.16,52236,16.63,72948.3,-1.53,-7.43,-4.85,0,*5E
1494180249.41,52237,16.63,72952.3,-1.53,-7.05,-4.65,0,*53
1494180250.64,52238,16.63,72958.8,-1.53,-7.19,-4.57,0,*50
1494180251.87,52239,16.63,72952.8,-1.53,-6.89,-4.57,0,*59
1494180253.07,52240,16.63,72952.3,-1.51,-6.77,-4.53,0,*50
1494180254.29,52241,16.63,72950.3,-1.53,-6.69,-4.65,0,*59
1494180255.54,52242,16.63,72948.5,-1.53,-6.63,-4.57,0,*51
1494180256.78,52243,16.63,72958.0,-1.53,-6.27,-4.57,0,*50
1494180258.03,52244,16.63,72956.8,-1.53,-6.27,-4.57,0,*57
1494180259.29,52245,16.63,72956.5,-1.53,-6.51,-4.69,0,*5A
1494180260.53,52246,16.63,72956.5,-1.53,-6.39,-4.69,0,*57
1494180261.8,52247,16.63,72958.8,-1.53,-6.63,-4.93,0,*5C
1494180263.07,52248,16.63,72950.3,-1.53,-6.63,-4.93,0,*53
1494180264.31,52249,16.63,72948.5,-1.53,-6.43,-4.93,0,*50
1494180265.54,52250,16.63,72950.0,-1.53,-6.13,-4.57,0,*55
1494180266.79,52251,16.63,72948.3,-1.53,-5.77,-4.53,0,*51
1494180268.04,52252,16.63,72952.8,-1.53,-5.73,-4.53,0,*56
1494180269.26,52253,16.63,72948.8,-1.55,-6.05,-4.85,0,*58
1494180270.49,52254,16.63,72950.8,-1.55,-6.13,-4.89,0,*54
1494180271.69,52255,16.63,72954.3,-1.55,-6.31,-4.99,0,*54
1494180272.92,52256,16.63,72954.0,-1.55,-6.43,-5.11,0,*53
1494180274.14,52257,16.63,72958.8,-1.53,-6.81,-5.43,0,*5D
1494180275.37,52258,16.63,72964.5,-1.53,-7.15,-5.47,0,*5A
1494180276.65,52259,16.63,72962.8,-1.53,-7.57,-5.61,0,*59
1494180277.9,52260,16.63,72952.8,-1.53,-7.31,-5.55,0,*54
1494180279.17,52261,16.63,72956.0,-1.53,-7.05,-5.65,0,*51
1494180280.44,52262,16.56,72946.5,-1.53,-7.35,-5.73,0,*56
1494180281.7,52263,16.63,72950.5,-1.53,-6.77,-5.31,0,*56
1494180282.95,52264,16.63,72954.0,-1.53,-6.93,-5.55,0,*59
1494180284.21,52265,16.56,72948.5,-1.55,-6.97,-5.65,0,*59
1494180285.4,52266,16.63,72948.3,-1.55,-6.73,-5.39,0,*59
1494180286.61,52267,16.63,72952.0,-1.55,-6.85,-5.51,0,*5F
1494180287.8,52268,16.63,72958.5,-1.55,-6.85,-5.47,0,*57
1494180289.03,52269,16.63,72956.5,-1.55,-6.97,-5.51,0,*52
1494180290.29,52270,16.56,72956.8,-1.55,-6.93,-5.23,0,*5B
1494180291.53,52271,16.56,72948.5,-1.55,-6.31,-5.03,0,*50
1494180292.76,52272,16.56,72950.5,-1.55,-6.13,-5.03,0,*53
1494180294.01,52273,16.56,72950.8,-1.59,-5.81,-4.73,0,*50
1494180295.21,52274,16.56,72950.5,-1.55,-5.39,-4.61,0,*5B
1494180296.44,52275,16.56,72948.0,-1.55,-5.35,-4.73,0,*55
1494180297.69,52276,16.56,72956.0,-1.55,-5.65,-5.03,0,*55
1494180298.96,52277,16.56,72958.5,-1.55,-5.93,-5.23,0,*5F
1494180300.15,52278,16.56,72956.3,-1.55,-6.39,-5.35,0,*54
1494180301.41,52279,16.56,72956.0,-1.59,-6.19,-5.23,0,*5C
1494180302.67,52280,16.56,72954.3,-1.55,-6.19,-5.15,0,*53
1494180303.89,52281,16.56,72954.0,-1.55,-6.27,-5.35,0,*5D
1494180305.09,52282,16.56,72954.0,-1.55,-6.55,-5.51,0,*59
1494180306.35,52283,16.56,72962.5,-1.55,-6.93,-5.65,0,*55
1494180307.58,52284,16.56,72956.8,-1.59,-7.11,-5.69,0,*59
1494180308.83,52285,16.56,72952.3,-1.55,-6.93,-5.65,0,*53
1494180310.04,52286,16.56,72952.5,-1.55,-6.59,-5.51,0,*51
1494180311.24,52287,16.56,72954.0,-1.55,-6.55,-5.47,0,*5B
1494180312.44,52288,16.56,72954.5,-1.55,-6.43,-5.39,0,*5A
1494180313.63,52289,16.56,72954.8,-1.55,-6.39,-5.39,0,*56
1494180314.87,52290,16.56,72958.5,-1.55,-6.59,-5.61,0,*55
1494180316.07,52291,16.56,72960.0,-1.55,-7.11,-6.05,0,*58
1494180317.31,52292,16.56,72958.8,-1.53,-7.61,-6.13,0,*5D
1494180318.56,52293,16.56,72958.8,-1.53,-7.69,-6.13,0,*54
1494180319.83,52294,16.56,72958.0,-1.53,-7.73,-6.27,0,*5F
1494180321.08,52295,16.56,72956.3,-1.53,-7.95,-6.39,0,*59
1494180322.3,52296,16.56,72960.3,-1.53,-8.17,-6.43,0,*52
1494180323.53,52297,16.56,72956.0,-1.53,-8.25,-6.55,0,*55
1494180324.73,52298,16.56,72962.5,-1.51,-8.55,-6.81,0,*56
1494180325.98,52299,16.56,72956.3,-1.53,-8.89,-6.93,0,*57
1494180327.21,52300,16.56,72962.3,-1.53,-8.75,-6.81,0,*56
1494180328.42,52301,16.56,72960.5,-1.55,-8.59,-6.81,0,*5F
1494180329.62,52302,16.56,72958.8,-1.55,-8.67,-6.81,0,*51
1494180330.85,52303,16.56,72958.0,-1.53,-8.75,-6.81,0,*55
1494180332.05,52304,16.56,72962.3,-1.55,-8.59,-6.85,0,*5E
1494180333.27,52305,16.56,72962.3,-1.55,-8.59,-6.93,0,*58
1494180334.5,52306,16.56,72964.8,-1.53,-8.63,-6.81,0,*57
1494180335.73,52307,16.56,72956.0,-1.53,-8.89,-6.39,0,*51
1494180336.98,52308,16.56,72948.5,-1.59,-8.03,-5.69,0,*50
1494180338.18,52309,16.56,72946.3,-1.55,-6.85,-5.39,0,*58
1494180339.4,52310,16.56,72946.5,-1.55,-6.27,-5.35,0,*54
1494180340.63,52311,16.56,72944.3,-1.55,-6.19,-5.51,0,*5A
1494180341.83,52312,16.56,72944.8,-1.55,-6.13,-5.39,0,*5D
1494180343.05,52313,16.56,72946.5,-1.55,-5.65,-5.39,0,*5E
1494180344.28,52314,16.56,72948.3,-1.51,-5.73,-5.55,0,*50
1494180345.5,52315,16.56,72954.0,-1.55,-6.05,-5.81,0,*5E
1494180346.7,52316,16.56,72958.3,-1.55,-6.55,-6.05,0,*57
1494180347.95,52317,16.56,72956.8,-1.55,-6.97,-6.19,0,*55
1494180349.18,52318,16.56,72958.3,-1.55,-7.19,-6.19,0,*5D
1494180350.41,52319,16.56,72958.0,-1.59,-7.35,-6.39,0,*5C
1494180351.6,52320,16.56,72956.8,-1.55,-7.53,-6.43,0,*57
1494180352.85,52321,16.56,72956.5,-1.53,-7.43,-6.51,0,*52
1494180354.06,52322,16.5,72958.0,-1.55,-7.53,-6.55,0,*52
1494180355.28,52323,16.56,72962.0,-1.55,-7.61,-6.55,0,*52
1494180356.51,52324,16.56,72960.5,-1.55,-7.91,-6.81,0,*53
1494180357.71,52325,16.56,72962.5,-1.55,-8.29,-6.47,0,*54
1494180358.96,52326,16.56,72962.5,-1.59,-7.77,-5.77,0,*5F
1494180360.18,52327,16.56,72952.0,-1.55,-6.85,-5.15,0,*5A
1494180361.43,52328,16.56,72950.0,-1.55,-6.27,-4.89,0,*59
1494180362.69,52329,16.56,72950.5,-1.55,-5.89,-4.85,0,*53
1494180363.91,52330,16.56,72936.3,-1.55,-5.81,-4.99,0,*5E
1494180365.17,52331,16.56,72916.8,-1.55,-5.65,-5.03,0,*57
1494180366.37,52332,16.5,72930.3,-1.55,-5.51,-4.99,0,*51
1494180367.57,52333,16.5,72928.8,-1.59,-5.47,-4.99,0,*5B
1494180368.8,52334,16.5,72934.8,-1.55,-5.39,-5.03,0,*5B
1494180370.03,52335,16.5,72948.0,-1.55,-5.47,-5.23,0,*51
1494180371.29,52336,16.5,72948.3,-1.53,-5.47,-5.19,0,*5D
1494180372.49,52337,16.5,72944.5,-1.55,-5.47,-5.47,0,*51
1494180373.71,52338,16.56,72954.8,-1.55,-5.77,-6.01,0,*5C
1494180374.94,52339,16.5,72956.3,-1.55,-6.13,-6.19,0,*55
1494180376.14,52340,16.5,72960.5,-1.55,-6.43,-6.55,0,*56
1494180377.34,52341,16.5,72956.3,-1.55,-7.19,-6.85,0,*54
1494180378.56,52342,16.56,72958.5,-1.55,-7.31,-6.43,0,*57
1494180379.79,52343,16.5,72950.3,-1.55,-6.97,-6.31,0,*5E
1494180381.02,52344,16.5,72952.8,-1.55,-6.81,-6.27,0,*59
1494180382.21,52345,16.5,72952.0,-1.55,-6.69,-6.69,0,*54
1494180383.45,52346,16.5,72960.0,-1.55,-7.05,-7.05,0,*57
1494180384.7,52347,16.5,72964.5,-1.55,-7.61,-7.05,0,*54
1494180385.94,52348,16.5,72966.0,-1.55,-7.77,-6.97,0,*56
1494180387.16,52349,16.5,72962.5,-1.55,-7.77,-6.73,0,*5D
1494180388.36,52350,16.5,72960.0,-1.55,-7.49,-6.85,0,*51
1494180389.61,52351,16.5,72960.5,-1.59,-7.77,-6.97,0,*52
1494180390.84,52352,16.5,72954.0,-1.59,-7.77,-6.81,0,*56
1494180392.04,52353,16.5,72952.5,-1.59,-7.53,-6.59,0,*54
1494180393.27,52354,16.5,72954.8,-1.55,-7.35,-6.31,0,*51
1494180394.5,52355,16.5,72952.3,-1.55,-6.93,-6.13,0,*5D
1494180395.7,52356,16.5,72952.0,-1.55,-6.81,-6.13,0,*5D
1494180396.92,52357,16.5,72950.8,-1.55,-6.69,-6.19,0,*50
1494180398.13,52358,16.5,72954.0,-1.55,-6.81,-6.31,0,*53
1494180399.33,52359,16.5,72956.3,-1.55,-6.85,-6.43,0,*53
1494180400.55,52360,16.5,72952.5,-1.55,-6.93,-6.69,0,*56
1494180401.78,52361,16.5,72952.5,-1.53,-7.19,-6.89,0,*5C
1494180403.02,52362,16.5,72958.5,-1.51,-7.35,-6.93,0,*58
1494180404.29,52363,16.5,72958.8,-1.53,-7.69,-6.93,0,*52
1494180405.54,52364,16.5,72956.3,-1.53,-7.87,-6.93,0,*55
1494180406.76,52365,16.5,72962.8,-1.53,-7.83,-6.69,0,*55
1494180407.98,52366,16.5,72960.3,-1.55,-7.77,-6.73,0,*50
1494180409.2,52367,16.5,72962.0,-1.55,-7.77,-6.85,0,*58
1494180410.45,52368,16.5,72960.3,-1.55,-7.77,-6.93,0,*50
1494180411.72,52369,16.5,72960.8,-1.53,-7.73,-6.93,0,*53
1494180413.0,52370,16.5,72960.0,-1.53,-7.73,-7.01,0,*51
1494180414.23,52371,16.5,72960.0,-1.53,-7.83,-7.15,0,*5A
1494180415.45,52372,16.5,72960.3,-1.53,-7.87,-7.49,0,*54
1494180416.7,52373,16.5,72962.0,-1.53,-8.17,-7.73,0,*5A
1494180417.92,52374,16.5,72960.5,-1.55,-8.59,-8.11,0,*5A
1494180419.14,52375,16.5,72960.8,-1.55,-8.97,-8.03,0,*5A
1494180420.39,52376,16.5,72960.5,-1.53,-9.19,-7.99,0,*54
1494180421.63,52377,16.5,72958.5,-1.55,-8.93,-7.61,0,*57
1494180422.86,52378,16.5,72960.5,-1.51,-9.01,-7.43,0,*56
1494180424.06,52379,16.5,72960.5,-1.55,-8.97,-7.19,0,*52
1494180425.3,52380,16.5,72964.3,-1.53,-8.75,-7.01,0,*57
1494180426.55,52381,16.5,72960.5,-1.53,-8.55,-6.93,0,*5E
1494180427.78,52382,16.5,72960.3,-1.51,-8.51,-6.81,0,*58
1494180429.01,52383,16.5,72960.5,-1.53,-8.25,-6.51,0,*55
1494180430.28,52384,16.5,72960.8,-1.53,-7.99,-6.23,0,*5F
1494180431.5,52385,16.5,72960.8,-1.55,-7.65,-6.05,0,*5F
1494180432.77,52386,16.5,72960.8,-1.53,-7.05,-5.73,0,*5E
1494180434.02,52387,16.5,72956.0,-1.53,-6.77,-5.61,0,*58
1494180435.28,52388,16.5,72956.8,-1.53,-6.55,-5.61,0,*57
1494180436.51,52389,16.44,72958.5,-1.53,-6.35,-5.55,0,*57
1494180437.76,52390,16.5,72960.8,-1.51,-6.27,-5.61,0,*59
1494180439.0,52391,16.44,72960.0,-1.53,-6.43,-5.77,0,*5F
1494180440.22,52392,16.44,72956.5,-1.53,-6.55,-5.97,0,*55
1494180441.46,52393,16.5,72958.8,-1.53,-6.63,-6.01,0,*5D
1494180442.71,52394,16.44,72956.5,-1.51,-6.63,-5.89,0,*5B
1494180443.96,52395,16.5,72960.0,-1.53,-6.55,-5.89,0,*5D
1494180445.18,52396,16.5,72958.5,-1.51,-6.69,-5.89,0,*53
1494180446.43,52397,16.44,72950.0,-1.53,-6.55,-5.85,0,*53
1494180447.7,52398,16.44,72946.8,-1.53,-6.27,-5.65,0,*57
1494180448.93,52399,16.44,72946.5,-1.53,-6.01,-5.43,0,*56
1494180450.18,52400,16.44,72960.8,-1.53,-5.97,-5.31,0,*58
1494180451.46,52401,16.44,72960.5,-1.53,-5.89,-5.07,0,*53
1494180452.73,52402,16.44,72960.0,-1.53,-5.73,-4.85,0,*5E
1494180453.96,52403,16.44,72958.5,-1.53,-5.47,-4.53,0,*53
1494180455.2,52404,16.44,72944.5,-1.53,-5.31,-4.45,0,*52
1494180456.44,52405,16.44,72936.5,-1.53,-4.93,-4.45,0,*5A
1494180457.68,52406,16.44,72932.0,-1.53,-4.77,-4.41,0,*57
1494180458.89,52407,16.44,72932.5,-1.55,-4.81,-4.45,0,*5D
1494180460.11,52408,16.44,72942.3,-1.59,-4.69,-4.33,0,*59
1494180461.31,52409,16.44,72954.0,-1.55,-4.61,-4.21,0,*5F
1494180462.5,52410,16.44,72956.3,-1.55,-4.45,-4.09,0,*5B
1494180463.71,52411,16.44,72952.5,-1.55,-4.25,-3.91,0,*5A
1494180464.94,52412,16.44,72954.5,-1.55,-4.21,-4.01,0,*53
1494180466.16,52413,16.44,72956.8,-1.53,-4.29,-4.09,0,*54
1494180467.39,52414,16.44,72964.3,-1.53,-4.33,-4.21,0,*52
1494180468.62,52415,16.44,72964.3,-1.53,-4.57,-4.41,0,*57
1494180469.86,52416,16.44,72964.0,-1.53,-4.81,-4.53,0,*5C
1494180471.12,52417,16.44,72966.3,-1.53,-5.07,-4.57,0,*56
1494180472.37,52418,16.44,72964.3,-1.53,-5.19,-4.57,0,*56
1494180473.61,52419,16.44,72966.3,-1.53,-5.43,-4.93,0,*50
1494180474.85,52420,16.44,72952.5,-1.53,-5.43,-4.81,0,*59
1494180476.1,52421,16.44,72958.8,-1.53,-5.43,-4.81,0,*58
1494180477.35,52422,16.44,72956.8,-1.53,-5.47,-4.81,0,*5F
1494180478.6,52423,16.44,72962.3,-1.55,-5.69,-4.85,0,*50
1494180479.88,52424,16.44,72952.3,-1.53,-5.61,-4.81,0,*5D
1494180481.11,52425,16.44,72956.5,-1.53,-5.55,-4.57,0,*50
1494180482.33,52426,16.44,72956.0,-1.53,-5.43,-4.57,0,*54
1494180483.58,52427,16.44,72966.5,-1.53,-5.47,-4.69,0,*5C
1494180484.84,52428,16.44,72964.5,-1.53,-5.55,-4.85,0,*52
1494180486.12,52429,16.44,72962.8,-1.53,-5.85,-5.07,0,*55
1494180487.38,52430,16.44,72964.5,-1.51,-5.85,-5.07,0,*5F
1494180488.66,52431,16.44,72964.8,-1.53,-5.89,-5.11,0,*57
1494180489.91,52432,16.44,72960.5,-1.53,-6.09,-5.31,0,*5D
1494180491.14,52433,16.44,72962.8,-1.53,-6.35,-5.35,0,*57
1494180492.36,52434,16.44,72958.8,-1.53,-6.43,-5.35,0,*51
1494180493.56,52435,16.44,72964.0,-1.55,-6.69,-5.39,0,*52
1494180494.78,52436,16.44,72966.0,-1.53,-6.69,-5.35,0,*5B
1494180496.0,52437,16.44,72964.5,-1.53,-6.81,-5.35,0,*5C
1494180497.25,52438,16.44,72956.5,-1.53,-6.81,-5.11,0,*55
1494180498.48,52439,16.44,72954.0,-1.51,-6.55,-4.85,0,*53
1494180499.71,52440,16.44,72952.5,-1.53,-6.13,-4.65,0,*53
1494180500.96,52441,16.44,72944.8,-1.53,-5.77,-4.57,0,*52
1494180502.19,52442,16.44,72944.8,-1.53,-5.47,-4.53,0,*56
1494180503.4,52443,16.44,72950.0,-1.53,-5.35,-4.45,0,*55
1494180504.66,52444,16.38,72950.8,-1.53,-5.07,-4.21,0,*51
1494180505.9,52445,16.44,72960.5,-1.53,-4.93,-4.17,0,*59
1494180507.13,52446,16.44,72964.0,-1.53,-4.81,-4.17,0,*59
1494180508.37,52447,16.44,72972.8,-1.53,-4.69,-4.09,0,*51